Location: Marsån
(66.4167°N, 22.2833°E)
Time: 09:42:07
(UTC+00:00)

Cosmos 2173 Rocket - Pass Details

Date: 24 February 2024
Orbit: 945 x 999 km, 83.0° (Epoch: 15 April)

Event Time Altitude Azimuth Distance (km) Brightness Sun altitude
Rises 16:29:53 0° 198° (SSW) 3,625 7.4 -7.3°
Reaches altitude 10° 16:32:23 10° 200° (SSW) 2,678 6.7 -7.5°
Maximum altitude 16:38:31 83° 288° (WNW) 964 4.1 -8.1°
Drops below altitude 10° 16:44:40 10° 18° (NNE) 2,682 6.1 -8.7°
Sets 16:47:10 0° 19° (NNE) 3,632 6.8 -9.0°
